Time,TemperatureF,DewpointF,PressureIn,WindDirection,WindDirectionDegrees,WindSpeedMPH,WindSpeedGustMPH,Humidity,HourlyPrecipIn,Conditions,Clouds,dailyrainin,SoftwareType,DateUTC
2013-03-08 00:02:00,33.6,26.8,30.22,ESE,102,5.2,6.9,76,0.00,CLR,SKC,0.00,WeatherDisplay:10.37,2013-03-08 06:02:00,
2013-03-08 00:08:00,33.5,26.7,30.22,ESE,122,5.8,7.0,76,0.00,CLR,SKC,0.00,WeatherDisplay:10.37,2013-03-08 06:08:00,
2013-03-08 00:13:00,33.5,27.1,30.22,SE,136,6.7,11.5,77,0.00,CLR,SKC,0.00,WeatherDisplay:10.37,2013-03-08 06:13:00,
2013-03-08 00:18:00,33.5,27.1,30.22,East,93,3.8,6.9,77,0.00,CLR,SKC,0.00,WeatherDisplay:10.37,2013-03-08 06:18:00,
2013-03-08 00:23:00,33.4,27.0,30.22,ESE,122,7.5,8.1,77,0.00,CLR,SKC,0.00,WeatherDisplay:10.37,2013-03-08 06:23:00,
2013-03-08 00:28:00,33.4,27.0,30.22,SE,141,7.9,10.0,77,0.00,CLR,SKC,0.00,WeatherDisplay:10.37,2013-03-08 06:28:00,
2013-03-08 00:33:00,33.4,27.0,30.23,SE,132,4.7,7.0,77,0.00,CLR,SKC,0.00,WeatherDisplay:10.37,2013-03-08 06:33:00,
2013-03-08 00:38:00,33.3,26.9,30.23,ESE,117,4.9,10.4,77,0.00,CLR,SKC,0.00,WeatherDisplay:10.37,2013-03-08 06:38:00,
2013-03-08 00:43:00,33.3,26.9,30.23,SE,125,5.3,10.4,77,0.00,CLR,SKC,0.00,WeatherDisplay:10.37,2013-03-08 06:43:00,
2013-03-08 00:48:00,33.2,26.8,30.22,SE,141,6.3,7.0,77,0.00,CLR,SKC,0.00,WeatherDisplay:10.37,2013-03-08 06:48:00,
2013-03-08 00:53:00,33.2,26.8,30.23,SE,124,6.1,11.5,77,0.00,CLR,SKC,0.00,WeatherDisplay:10.37,2013-03-08 06:53:00,
2013-03-08 00:58:00,33.1,26.7,30.23,SE,136,5.1,7.0,77,0.00,CLR,SKC,0.00,WeatherDisplay:10.37,2013-03-08 06:58:00,
2013-03-08 01:03:00,33.1,26.7,30.22,SE,143,5.1,10.4,77,0.00,CLR,SKC,0.00,WeatherDisplay:10.37,2013-03-08 07:03:00,
2013-03-08 01:08:00,33.0,26.6,30.22,ESE,121,6.5,10.4,77,0.00,CLR,SKC,0.00,WeatherDisplay:10.37,2013-03-08 07:08:00,
2013-03-08 01:13:00,33.0,26.6,30.23,SE,128,6.9,9.2,77,0.00,CLR,SKC,0.00,WeatherDisplay:10.37,2013-03-08 07:13:00,
2013-03-08 01:18:00,33.0,26.6,30.23,SE,131,4.7,11.5,77,0.00,CLR,SKC,0.00,WeatherDisplay:10.37,2013-03-08 07:18:00,
2013-03-08 01:23:00,33.0,26.6,30.22,SE,128,5.1,6.9,77,0.00,CLR,SKC,0.00,WeatherDisplay:10.37,2013-03-08 07:23:00,
2013-03-08 01:28:00,32.9,26.5,30.22,SE,131,3.6,5.8,77,0.00,CLR,SKC,0.00,WeatherDisplay:10.37,2013-03-08 07:28:00,
2013-03-08 01:33:00,32.9,26.5,30.23,ESE,113,5.4,6.0,77,0.00,CLR,SKC,0.00,WeatherDisplay:10.37,2013-03-08 07:33:00,
2013-03-08 01:38:00,32.9,26.8,30.23,ESE,114,6.6,8.1,78,0.00,CLR,SKC,0.00,WeatherDisplay:10.37,2013-03-08 07:38:00,
2013-03-08 01:43:00,32.9,26.5,30.22,ESE,115,4.9,6.9,77,0.00,CLR,SKC,0.00,WeatherDisplay:10.37,2013-03-08 07:43:00,
2013-03-08 01:48:00,32.9,26.5,30.23,SE,124,4.4,6.9,77,0.00,CLR,SKC,0.00,WeatherDisplay:10.37,2013-03-08 07:48:00,
2013-03-08 01:53:00,32.9,26.8,30.22,SE,129,5.0,8.1,78,0.00,CLR,SKC,0.00,WeatherDisplay:10.37,2013-03-08 07:53:00,
2013-03-08 01:58:00,32.9,26.5,30.22,SE,143,3.8,6.9,77,0.00,CLR,SKC,0.00,WeatherDisplay:10.37,2013-03-08 07:58:00,
2013-03-08 02:03:00,32.9,26.5,30.22,SE,128,5.6,8.1,77,0.00,CLR,SKC,0.00,WeatherDisplay:10.37,2013-03-08 08:03:00,
2013-03-08 02:08:00,32.9,26.5,30.22,ENE,65,4.2,4.6,77,0.00,CLR,SKC,0.00,WeatherDisplay:10.37,2013-03-08 08:08:00,
2013-03-08 02:13:00,32.8,26.7,30.22,East,91,5.3,9.2,78,0.00,CLR,SKC,0.00,WeatherDisplay:10.37,2013-03-08 08:13:00,
2013-03-08 02:18:00,32.9,26.8,30.22,SE,129,5.5,8.1,78,0.00,CLR,SKC,0.00,WeatherDisplay:10.37,2013-03-08 08:18:00,
2013-03-08 02:23:00,32.8,26.7,30.22,ESE,121,4.2,4.6,78,0.00,CLR,SKC,0.00,WeatherDisplay:10.37,2013-03-08 08:23:00,
2013-03-08 02:28:00,32.7,26.6,30.22,ESE,118,3.0,4.6,78,0.00,CLR,SKC,0.00,WeatherDisplay:10.37,2013-03-08 08:28:00,
2013-03-08 02:33:00,32.7,26.6,30.21,ENE,69,4.1,6.9,78,0.00,CLR,SKC,0.00,WeatherDisplay:10.37,2013-03-08 08:33:00,
2013-03-08 02:38:00,32.7,26.6,30.21,East,97,2.9,6.9,78,0.00,CLR,SKC,0.00,WeatherDisplay:10.37,2013-03-08 08:38:00,
2013-03-08 02:56:00,32.5,26.4,30.21,ENE,73,3.9,4.6,78,0.00,CLR,SKC,0.00,WeatherDisplay:10.37,2013-03-08 08:56:00,
2013-03-08 03:01:00,32.5,26.4,30.21,ESE,115,4.1,6.9,78,0.00,CLR,SKC,0.00,WeatherDisplay:10.37,2013-03-08 09:01:00,
2013-03-08 03:06:00,32.5,26.7,30.21,East,86,4.5,9.2,79,0.00,CLR,SKC,0.00,WeatherDisplay:10.37,2013-03-08 09:06:00,
2013-03-08 03:11:00,32.4,26.3,30.20,ESE,113,5.2,6.9,78,0.00,CLR,SKC,0.00,WeatherDisplay:10.37,2013-03-08 09:11:00,
2013-03-08 03:16:00,32.3,26.5,30.20,ESE,117,4.4,5.8,79,0.00,CLR,SKC,0.00,WeatherDisplay:10.37,2013-03-08 09:16:00,
2013-03-08 03:33:00,32.3,26.5,30.20,SE,124,5.4,7.0,79,0.00,CLR,SKC,0.00,WeatherDisplay:10.37,2013-03-08 09:33:00,
2013-03-08 03:38:00,32.3,26.5,30.20,ESE,108,3.2,5.0,79,0.00,CLR,SKC,0.00,WeatherDisplay:10.37,2013-03-08 09:38:00,
2013-03-08 03:43:00,32.3,26.5,30.20,ESE,113,4.6,6.9,79,0.00,CLR,SKC,0.00,WeatherDisplay:10.37,2013-03-08 09:43:00,
2013-03-08 03:49:00,32.2,26.4,30.20,SE,124,3.4,5.8,79,0.00,CLR,SKC,0.00,WeatherDisplay:10.37,2013-03-08 09:49:00,
2013-03-08 03:54:00,32.1,26.3,30.20,East,100,2.8,4.6,79,0.00,CLR,SKC,0.00,WeatherDisplay:10.37,2013-03-08 09:54:00,
2013-03-08 03:59:00,32.1,26.3,30.20,East,91,3.5,5.8,79,0.00,CLR,SKC,0.00,WeatherDisplay:10.37,2013-03-08 09:59:00,
2013-03-08 04:04:00,32.1,26.3,30.20,ESE,105,3.9,6.0,79,0.00,CLR,SKC,0.00,WeatherDisplay:10.37,2013-03-08 10:04:00,
2013-03-08 04:09:00,32.0,26.2,30.20,SE,134,2.0,5.8,79,0.00,CLR,SKC,0.00,WeatherDisplay:10.37,2013-03-08 10:09:00,
2013-03-08 04:14:00,31.9,26.1,30.20,ESE,113,2.6,4.6,79,0.00,CLR,SKC,0.00,WeatherDisplay:10.37,2013-03-08 10:14:00,
2013-03-08 04:19:00,31.9,26.4,30.20,ESE,108,2.0,3.5,80,0.00,CLR,SKC,0.00,WeatherDisplay:10.37,2013-03-08 10:19:00,
2013-03-08 04:24:00,31.8,26.3,30.19,East,92,3.2,5.0,80,0.00,CLR,SKC,0.00,WeatherDisplay:10.37,2013-03-08 10:24:00,
2013-03-08 04:30:00,31.8,26.3,30.19,East,84,2.9,6.9,80,0.00,CLR,SKC,0.00,WeatherDisplay:10.37,2013-03-08 10:30:00,
2013-03-08 04:34:00,31.9,26.4,30.19,ESE,109,2.5,4.6,80,0.00,CLR,SKC,0.00,WeatherDisplay:10.37,2013-03-08 10:34:00,
2013-03-08 04:40:00,31.9,26.4,30.19,ESE,111,3.4,4.0,80,0.00,CLR,SKC,0.00,WeatherDisplay:10.37,2013-03-08 10:40:00,
2013-03-08 04:45:00,31.9,26.4,30.19,East,98,1.9,3.5,80,0.00,CLR,SKC,0.00,WeatherDisplay:10.37,2013-03-08 10:45:00,
2013-03-08 04:50:00,31.9,26.4,30.19,East,89,3.6,4.6,80,0.00,CLR,SKC,0.00,WeatherDisplay:10.37,2013-03-08 10:50:00,
2013-03-08 04:55:00,31.9,26.4,30.19,East,92,3.8,3.8,80,0.00,CLR,SKC,0.00,WeatherDisplay:10.37,2013-03-08 10:55:00,
2013-03-08 05:00:00,32.0,26.5,30.19,East,99,2.3,3.5,80,0.00,CLR,SKC,0.00,WeatherDisplay:10.37,2013-03-08 11:00:00,
2013-03-08 05:05:00,31.9,26.4,30.19,ESE,111,1.7,3.5,80,0.00,CLR,SKC,0.00,WeatherDisplay:10.37,2013-03-08 11:05:00,
2013-03-08 05:10:00,31.9,26.4,30.19,ESE,110,2.5,5.0,80,0.00,CLR,SKC,0.00,WeatherDisplay:10.37,2013-03-08 11:10:00,
2013-03-08 05:15:00,31.9,26.4,30.19,ESE,109,2.7,5.8,80,0.00,CLR,SKC,0.00,WeatherDisplay:10.37,2013-03-08 11:15:00,
2013-03-08 05:20:00,31.9,26.4,30.19,ESE,112,2.9,3.5,80,0.00,CLR,SKC,0.00,WeatherDisplay:10.37,2013-03-08 11:20:00,
2013-03-08 05:25:00,31.9,26.4,30.19,ESE,105,4.1,4.6,80,0.00,CLR,SKC,0.00,WeatherDisplay:10.37,2013-03-08 11:25:00,
2013-03-08 05:30:00,32.0,26.5,30.19,East,83,3.1,4.6,80,0.00,CLR,SKC,0.00,WeatherDisplay:10.37,2013-03-08 11:30:00,
2013-03-08 05:35:00,31.8,26.3,30.19,East,88,2.1,3.5,80,0.00,CLR,SKC,0.00,WeatherDisplay:10.37,2013-03-08 11:35:00,
2013-03-08 05:40:00,31.7,26.5,30.18,East,89,3.2,4.6,81,0.00,CLR,SKC,0.00,WeatherDisplay:10.37,2013-03-08 11:40:00,
2013-03-08 05:45:00,31.7,26.5,30.18,ESE,105,2.4,3.5,81,0.00,CLR,SKC,0.00,WeatherDisplay:10.37,2013-03-08 11:45:00,
2013-03-08 05:50:00,31.7,26.5,30.18,ESE,115,1.8,3.5,81,0.00,CLR,SKC,0.00,WeatherDisplay:10.37,2013-03-08 11:50:00,
2013-03-08 05:55:00,31.6,26.4,30.18,ESE,105,2.5,3.5,81,0.00,CLR,SKC,0.00,WeatherDisplay:10.37,2013-03-08 11:55:00,
2013-03-08 06:00:00,31.6,26.4,30.18,ESE,113,2.6,3.5,81,0.00,CLR,SKC,0.00,WeatherDisplay:10.37,2013-03-08 12:00:00,
2013-03-08 06:05:00,31.6,26.4,30.18,East,89,2.9,4.0,81,0.00,CLR,SKC,0.00,WeatherDisplay:10.37,2013-03-08 12:05:00,
2013-03-08 06:10:00,31.6,26.4,30.18,ESE,107,2.1,3.5,81,0.00,CLR,SKC,0.00,WeatherDisplay:10.37,2013-03-08 12:10:00,
2013-03-08 06:15:00,31.5,26.3,30.18,SE,124,2.5,3.5,81,0.00,CLR,SKC,0.00,WeatherDisplay:10.37,2013-03-08 12:15:00,
2013-03-08 06:20:00,31.5,26.3,30.18,SSE,147,2.3,3.5,81,0.00,CLR,SKC,0.00,WeatherDisplay:10.37,2013-03-08 12:20:00,
2013-03-08 06:25:00,31.4,26.5,30.18,ESE,122,2.5,6.9,82,0.00,CLR,SKC,0.00,WeatherDisplay:10.37,2013-03-08 12:25:00,
2013-03-08 06:30:00,31.4,26.5,30.18,SE,127,2.4,3.5,82,0.00,CLR,SKC,0.00,WeatherDisplay:10.37,2013-03-08 12:30:00,
2013-03-08 06:35:00,31.4,26.5,30.18,SE,125,3.0,5.0,82,0.00,CLR,SKC,0.00,WeatherDisplay:10.37,2013-03-08 12:35:00,
2013-03-08 06:40:00,31.4,26.5,30.18,ESE,120,3.8,5.0,82,0.00,CLR,SKC,0.00,WeatherDisplay:10.37,2013-03-08 12:40:00,
2013-03-08 06:45:00,31.4,26.5,30.19,East,88,3.7,4.6,82,0.00,CLR,SKC,0.00,WeatherDisplay:10.37,2013-03-08 12:45:00,
2013-03-08 06:50:00,31.5,26.6,30.19,ESE,112,4.0,4.0,82,0.00,CLR,SKC,0.00,WeatherDisplay:10.37,2013-03-08 12:50:00,
2013-03-08 06:55:00,31.6,26.7,30.18,South,169,2.2,3.5,82,0.00,CLR,SKC,0.00,WeatherDisplay:10.37,2013-03-08 12:55:00,
2013-03-08 07:00:00,31.7,26.8,30.18,ESE,117,1.4,3.5,82,0.00,CLR,SKC,0.00,WeatherDisplay:10.37,2013-03-08 13:00:00,
2013-03-08 07:05:00,31.8,26.9,30.19,SE,124,2.8,3.5,82,0.00,CLR,SKC,0.00,WeatherDisplay:10.37,2013-03-08 13:05:00,
2013-03-08 07:10:00,32.1,27.2,30.19,ESE,115,3.0,6.0,82,0.00,CLR,SKC,0.00,WeatherDisplay:10.37,2013-03-08 13:10:00,
2013-03-08 07:15:00,32.4,27.2,30.18,ESE,111,2.8,4.6,81,0.00,CLR,SKC,0.00,WeatherDisplay:10.37,2013-03-08 13:15:00,
2013-03-08 07:20:00,32.6,27.4,30.18,ESE,105,3.0,4.0,81,0.00,CLR,SKC,0.00,WeatherDisplay:10.37,2013-03-08 13:20:00,
2013-03-08 07:25:00,32.9,27.4,30.18,ESE,105,2.8,3.5,80,0.00,CLR,SKC,0.00,WeatherDisplay:10.37,2013-03-08 13:25:00,
2013-03-08 07:30:00,33.2,27.7,30.18,SE,139,3.6,5.0,80,0.00,CLR,SKC,0.00,WeatherDisplay:10.37,2013-03-08 13:30:00,
2013-03-08 07:35:00,33.5,28.0,30.18,SE,125,4.6,8.1,80,0.00,CLR,SKC,0.00,WeatherDisplay:10.37,2013-03-08 13:35:00,
2013-03-08 07:40:00,33.8,28.0,30.18,ESE,107,3.8,5.8,79,0.00,CLR,SKC,0.00,WeatherDisplay:10.37,2013-03-08 13:40:00,
2013-03-08 07:45:00,34.1,28.0,30.18,ESE,120,3.6,5.8,78,0.00,CLR,SKC,0.00,WeatherDisplay:10.37,2013-03-08 13:45:00,
2013-03-08 07:50:00,34.4,28.2,30.18,ESE,117,8.2,11.5,78,0.00,CLR,SKC,0.00,WeatherDisplay:10.37,2013-03-08 13:50:00,
2013-03-08 07:55:00,34.7,28.5,30.18,ESE,116,3.6,8.1,78,0.00,CLR,SKC,0.00,WeatherDisplay:10.37,2013-03-08 13:55:00,
2013-03-08 08:00:00,34.9,28.4,30.18,SE,131,5.3,8.1,77,0.00,CLR,SKC,0.00,WeatherDisplay:10.37,2013-03-08 14:00:00,
2013-03-08 08:05:00,35.2,28.4,30.18,SE,135,4.2,6.9,76,0.00,CLR,SKC,0.00,WeatherDisplay:10.37,2013-03-08 14:05:00,
2013-03-08 08:10:00,35.6,28.8,30.18,ESE,105,6.1,9.0,76,0.00,CLR,SKC,0.00,WeatherDisplay:10.37,2013-03-08 14:10:00,
2013-03-08 08:15:00,36.1,28.9,30.18,ESE,103,4.3,6.9,75,0.00,CLR,SKC,0.00,WeatherDisplay:10.37,2013-03-08 14:15:00,
2013-03-08 08:20:00,36.4,28.9,30.18,ESE,120,4.9,6.9,74,0.00,CLR,SKC,0.00,WeatherDisplay:10.37,2013-03-08 14:20:00,
2013-03-08 08:25:00,36.9,29.4,30.18,SE,124,3.8,6.0,74,0.00,CLR,SKC,0.00,WeatherDisplay:10.37,2013-03-08 14:25:00,
2013-03-08 08:30:00,37.3,29.4,30.17,SE,124,6.9,7.0,73,0.00,CLR,SKC,0.00,WeatherDisplay:10.37,2013-03-08 14:30:00,
2013-03-08 08:35:00,37.8,29.6,30.17,SSE,153,5.4,8.1,72,0.00,CLR,SKC,0.00,WeatherDisplay:10.37,2013-03-08 14:35:00,
2013-03-08 08:40:00,38.4,30.2,30.17,SE,146,5.6,7.0,72,0.00,CLR,SKC,0.00,WeatherDisplay:10.37,2013-03-08 14:40:00,
2013-03-08 08:45:00,38.8,30.2,30.18,ESE,116,6.3,10.0,71,0.00,CLR,SKC,0.00,WeatherDisplay:10.37,2013-03-08 14:45:00,
2013-03-08 08:50:00,39.3,30.3,30.18,SE,144,6.3,9.2,70,0.00,CLR,SKC,0.00,WeatherDisplay:10.37,2013-03-08 14:50:00,
2013-03-08 08:55:00,39.5,30.5,30.18,ESE,111,4.8,5.8,70,0.00,CLR,SKC,0.00,WeatherDisplay:10.37,2013-03-08 14:55:00,
2013-03-08 09:00:00,39.9,30.2,30.18,SE,131,9.6,13.0,68,0.00,CLR,SKC,0.00,WeatherDisplay:10.37,2013-03-08 15:00:00,
2013-03-08 09:05:00,40.1,30.4,30.17,SSE,155,8.9,12.7,68,0.00,CLR,SKC,0.00,WeatherDisplay:10.37,2013-03-08 15:05:00,
2013-03-08 09:10:00,40.1,30.4,30.17,SE,138,7.4,11.5,68,0.00,CLR,SKC,0.00,WeatherDisplay:10.37,2013-03-08 15:10:00,
2013-03-08 09:15:00,40.0,30.3,30.17,East,94,7.3,16.1,68,0.00,CLR,SKC,0.00,WeatherDisplay:10.37,2013-03-08 15:15:00,
2013-03-08 09:20:00,40.0,30.6,30.17,SE,129,3.4,4.0,69,0.00,CLR,SKC,0.00,WeatherDisplay:10.37,2013-03-08 15:20:00,
2013-03-08 09:25:00,40.0,30.3,30.17,SSE,152,3.8,5.8,68,0.00,CLR,SKC,0.00,WeatherDisplay:10.37,2013-03-08 15:25:00,
2013-03-08 09:31:00,40.3,30.9,30.18,South,177,3.3,5.8,69,0.00,CLR,SKC,0.00,WeatherDisplay:10.37,2013-03-08 15:31:00,
2013-03-08 09:36:00,41.2,31.1,30.18,ESE,118,5.8,8.1,67,0.00,CLR,SKC,0.00,WeatherDisplay:10.37,2013-03-08 15:36:00,
2013-03-08 09:41:00,41.7,31.5,30.17,ESE,122,7.4,14.0,67,0.00,CLR,SKC,0.00,WeatherDisplay:10.37,2013-03-08 15:41:00,
2013-03-08 09:46:00,42.4,31.8,30.17,SSE,155,5.5,5.8,66,0.00,CLR,SKC,0.00,WeatherDisplay:10.37,2013-03-08 15:46:00,
2013-03-08 09:51:00,43.3,31.9,30.17,SSE,158,5.6,11.5,64,0.00,CLR,SKC,0.00,WeatherDisplay:10.37,2013-03-08 15:51:00,
2013-03-08 09:56:00,43.3,31.5,30.17,SSE,156,8.3,15.0,63,0.00,CLR,SKC,0.00,WeatherDisplay:10.37,2013-03-08 15:56:00,
2013-03-08 10:01:00,43.6,31.8,30.16,ESE,116,9.1,12.0,63,0.00,CLR,SKC,0.00,WeatherDisplay:10.37,2013-03-08 16:01:00,
2013-03-08 10:06:00,43.6,31.8,30.16,SE,134,8.9,11.5,63,0.00,CLR,SKC,0.00,WeatherDisplay:10.37,2013-03-08 16:06:00,
2013-03-08 10:11:00,43.2,31.8,30.16,SE,132,5.4,11.5,64,0.00,CLR,SKC,0.00,WeatherDisplay:10.37,2013-03-08 16:11:00,
2013-03-08 10:16:00,43.7,32.3,30.16,SSW,204,3.0,3.5,64,0.00,CLR,SKC,0.00,WeatherDisplay:10.37,2013-03-08 16:16:00,
2013-03-08 10:21:00,43.8,32.0,30.16,ESE,108,5.7,11.5,63,0.00,CLR,SKC,0.00,WeatherDisplay:10.37,2013-03-08 16:21:00,
2013-03-08 10:26:00,43.7,31.9,30.16,SE,134,7.3,11.5,63,0.00,CLR,SKC,0.00,WeatherDisplay:10.37,2013-03-08 16:26:00,
2013-03-08 10:31:00,43.6,31.8,30.16,SE,143,7.8,11.5,63,0.00,CLR,SKC,0.00,WeatherDisplay:10.37,2013-03-08 16:31:00,
2013-03-08 10:36:00,43.8,32.0,30.16,SE,134,5.6,9.2,63,0.00,CLR,SKC,0.00,WeatherDisplay:10.37,2013-03-08 16:36:00,
2013-03-08 10:41:00,44.1,32.3,30.16,SE,128,4.7,5.0,63,0.00,CLR,SKC,0.00,WeatherDisplay:10.37,2013-03-08 16:41:00,
2013-03-08 10:46:00,44.3,32.5,30.16,SE,129,7.6,9.2,63,0.00,CLR,SKC,0.00,WeatherDisplay:10.37,2013-03-08 16:46:00,
2013-03-08 10:51:00,44.7,32.5,30.15,SE,136,6.4,8.1,62,0.00,CLR,SKC,0.00,WeatherDisplay:10.37,2013-03-08 16:51:00,
2013-03-08 10:56:00,44.9,32.7,30.16,ESE,112,5.0,8.1,62,0.00,CLR,SKC,0.00,WeatherDisplay:10.37,2013-03-08 16:56:00,
2013-03-08 11:01:00,45.3,32.6,30.16,SE,136,6.9,7.0,61,0.00,CLR,SKC,0.00,WeatherDisplay:10.37,2013-03-08 17:01:00,
2013-03-08 11:06:00,45.6,33.3,30.15,ESE,118,3.3,10.0,62,0.00,CLR,SKC,0.00,WeatherDisplay:10.37,2013-03-08 17:06:00,
2013-03-08 11:11:00,45.9,33.2,30.15,SE,125,3.3,4.6,61,0.00,CLR,SKC,0.00,WeatherDisplay:10.37,2013-03-08 17:11:00,
2013-03-08 11:16:00,46.4,33.7,30.15,SE,141,3.5,4.6,61,0.00,CLR,SKC,0.00,WeatherDisplay:10.37,2013-03-08 17:16:00,
2013-03-08 11:21:00,46.6,33.4,30.14,East,94,5.2,9.2,60,0.00,CLR,SKC,0.00,WeatherDisplay:10.37,2013-03-08 17:21:00,
2013-03-08 11:26:00,46.8,33.6,30.15,ESE,113,5.0,6.9,60,0.00,CLR,SKC,0.00,WeatherDisplay:10.37,2013-03-08 17:26:00,
2013-03-08 11:31:00,46.8,33.6,30.15,ESE,115,5.8,8.1,60,0.00,CLR,SKC,0.00,WeatherDisplay:10.37,2013-03-08 17:31:00,
2013-03-08 11:36:00,46.8,33.6,30.14,ESE,107,7.2,10.4,60,0.00,CLR,SKC,0.00,WeatherDisplay:10.37,2013-03-08 17:36:00,
2013-03-08 11:41:00,47.3,34.1,30.14,SE,145,6.1,9.2,60,0.00,CLR,SKC,0.00,WeatherDisplay:10.37,2013-03-08 17:41:00,
2013-03-08 11:46:00,47.5,33.9,30.14,ESE,121,6.1,9.2,59,0.00,CLR,SKC,0.00,WeatherDisplay:10.37,2013-03-08 17:46:00,
2013-03-08 11:51:00,47.6,34.0,30.13,SE,131,6.1,8.1,59,0.00,CLR,SKC,0.00,WeatherDisplay:10.37,2013-03-08 17:51:00,
2013-03-08 11:56:00,47.9,34.3,30.14,SSW,193,3.2,4.6,59,0.00,CLR,SKC,0.00,WeatherDisplay:10.37,2013-03-08 17:56:00,
2013-03-08 12:01:00,48.4,34.3,30.14,SSE,151,5.6,8.0,58,0.00,CLR,SKC,0.00,WeatherDisplay:10.37,2013-03-08 18:01:00,
2013-03-08 12:06:00,48.5,34.4,30.14,ESE,122,4.7,6.9,58,0.00,CLR,SKC,0.00,WeatherDisplay:10.37,2013-03-08 18:06:00,
2013-03-08 12:11:00,48.6,34.5,30.13,ESE,122,7.4,9.2,58,0.00,CLR,SKC,0.00,WeatherDisplay:10.37,2013-03-08 18:11:00,
2013-03-08 12:16:00,48.4,34.3,30.13,SE,129,8.4,11.5,58,0.00,CLR,SKC,0.00,WeatherDisplay:10.37,2013-03-08 18:16:00,
2013-03-08 12:21:00,48.6,34.9,30.13,East,94,4.9,9.2,59,0.00,CLR,SKC,0.00,WeatherDisplay:10.37,2013-03-08 18:21:00,
2013-03-08 12:26:00,49.2,35.0,30.13,SE,144,5.0,5.8,58,0.00,CLR,SKC,0.00,WeatherDisplay:10.37,2013-03-08 18:26:00,
2013-03-08 12:31:00,49.5,34.9,30.13,ESE,113,5.8,9.2,57,0.00,CLR,SKC,0.00,WeatherDisplay:10.37,2013-03-08 18:31:00,
2013-03-08 12:36:00,49.8,35.6,30.12,SE,141,8.4,11.5,58,0.00,CLR,SKC,0.00,WeatherDisplay:10.37,2013-03-08 18:36:00,
2013-03-08 12:41:00,50.0,35.8,30.12,SE,143,10.8,14.0,58,0.00,SCT,SKC,0.00,WeatherDisplay:10.37,2013-03-08 18:41:00,
2013-03-08 12:46:00,50.1,35.9,30.11,ESE,121,10.3,13.8,58,0.00,SCT,SKC,0.00,WeatherDisplay:10.37,2013-03-08 18:46:00,
2013-03-08 12:51:00,50.3,36.1,30.11,ESE,105,5.6,11.5,58,0.00,SCT,SKC,0.00,WeatherDisplay:10.37,2013-03-08 18:51:00,
2013-03-08 12:56:00,50.6,35.9,30.10,East,101,10.9,16.1,57,0.00,SCT,SKC,0.00,WeatherDisplay:10.37,2013-03-08 18:56:00,
2013-03-08 13:01:00,50.8,36.5,30.09,ESE,111,6.3,11.5,58,0.00,CLR,SKC,0.00,WeatherDisplay:10.37,2013-03-08 19:01:00,
2013-03-08 13:06:00,50.9,36.2,30.09,ESE,108,5.7,8.1,57,0.00,CLR,SKC,0.00,WeatherDisplay:10.37,2013-03-08 19:06:00,
2013-03-08 13:11:00,51.1,36.4,30.09,SSE,149,4.5,11.5,57,0.00,CLR,SKC,0.00,WeatherDisplay:10.37,2013-03-08 19:11:00,
2013-03-08 13:16:00,51.4,36.7,30.09,ESE,113,6.5,11.5,57,0.00,CLR,SKC,0.00,WeatherDisplay:10.37,2013-03-08 19:16:00,
2013-03-08 13:21:00,51.6,36.4,30.09,SE,125,8.9,10.4,56,0.00,CLR,SKC,0.00,WeatherDisplay:10.37,2013-03-08 19:21:00,
2013-03-08 13:26:00,51.8,36.6,30.08,SSE,166,8.9,12.7,56,0.00,CLR,SKC,0.00,WeatherDisplay:10.37,2013-03-08 19:26:00,
2013-03-08 13:31:00,51.7,36.5,30.08,SSE,158,12.9,19.6,56,0.00,CLR,SKC,0.00,WeatherDisplay:10.37,2013-03-08 19:31:00,
2013-03-08 13:36:00,51.6,36.4,30.08,SE,143,9.1,11.5,56,0.00,CLR,SKC,0.00,WeatherDisplay:10.37,2013-03-08 19:36:00,
2013-03-08 13:41:00,51.7,36.5,30.07,ESE,120,13.0,18.4,56,0.00,CLR,SKC,0.00,WeatherDisplay:10.37,2013-03-08 19:41:00,
2013-03-08 13:46:00,51.4,36.2,30.07,SE,139,10.0,15.0,56,0.00,CLR,SKC,0.00,WeatherDisplay:10.37,2013-03-08 19:46:00,
2013-03-08 13:51:00,51.7,36.5,30.07,SE,146,9.4,12.7,56,0.00,CLR,SKC,0.00,WeatherDisplay:10.37,2013-03-08 19:51:00,
2013-03-08 13:56:00,51.7,36.5,30.06,East,84,10.2,15.0,56,0.00,CLR,SKC,0.00,WeatherDisplay:10.37,2013-03-08 19:56:00,
2013-03-08 14:01:00,51.8,37.0,30.06,ESE,108,7.2,10.4,57,0.00,CLR,SKC,0.00,WeatherDisplay:10.37,2013-03-08 20:01:00,
2013-03-08 14:06:00,52.0,36.8,30.06,ESE,113,10.0,13.8,56,0.00,CLR,SKC,0.00,WeatherDisplay:10.37,2013-03-08 20:06:00,
2013-03-08 14:11:00,52.2,37.4,30.06,SE,140,9.5,11.0,57,0.00,CLR,SKC,0.00,WeatherDisplay:10.37,2013-03-08 20:11:00,
2013-03-08 14:16:00,52.0,37.2,30.05,SSE,149,7.4,12.7,57,0.00,CLR,SKC,0.00,WeatherDisplay:10.37,2013-03-08 20:16:00,
2013-03-08 14:21:00,52.1,37.3,30.04,East,89,12.0,18.4,57,0.00,CLR,SKC,0.00,WeatherDisplay:10.37,2013-03-08 20:21:00,
2013-03-08 14:26:00,52.1,37.3,30.04,ESE,103,12.6,19.6,57,0.00,CLR,SKC,0.00,WeatherDisplay:10.37,2013-03-08 20:26:00,
2013-03-08 14:31:00,52.1,37.3,30.04,ESE,111,10.3,15.0,57,0.00,CLR,SKC,0.00,WeatherDisplay:10.37,2013-03-08 20:31:00,
2013-03-08 14:36:00,52.2,37.0,30.04,SE,129,11.7,20.7,56,0.00,CLR,SKC,0.00,WeatherDisplay:10.37,2013-03-08 20:36:00,
2013-03-08 14:41:00,52.3,37.5,30.04,East,89,5.8,10.4,57,0.00,CLR,SKC,0.00,WeatherDisplay:10.37,2013-03-08 20:41:00,
2013-03-08 14:46:00,52.4,37.6,30.04,ESE,119,6.5,11.5,57,0.00,CLR,SKC,0.00,WeatherDisplay:10.37,2013-03-08 20:46:00,
2013-03-08 14:51:00,52.5,37.7,30.03,SE,136,9.5,13.8,57,0.00,CLR,SKC,0.00,WeatherDisplay:10.37,2013-03-08 20:51:00,
2013-03-08 14:56:00,52.5,37.7,30.03,SE,144,9.9,12.7,57,0.00,CLR,SKC,0.00,WeatherDisplay:10.37,2013-03-08 20:56:00,
2013-03-08 15:01:00,52.6,37.8,30.03,ESE,108,9.1,13.8,57,0.00,CLR,SKC,0.00,WeatherDisplay:10.37,2013-03-08 21:01:00,
2013-03-08 15:06:00,52.8,38.4,30.04,ESE,108,4.6,12.0,58,0.00,CLR,SKC,0.00,WeatherDisplay:10.37,2013-03-08 21:06:00,
2013-03-08 15:11:00,53.0,38.2,30.03,ESE,115,8.1,15.0,57,0.00,CLR,SKC,0.00,WeatherDisplay:10.37,2013-03-08 21:11:00,
2013-03-08 15:16:00,53.1,38.3,30.03,SE,131,7.3,13.8,57,0.00,CLR,SKC,0.00,WeatherDisplay:10.37,2013-03-08 21:16:00,
2013-03-08 15:21:00,53.4,39.0,30.03,SSE,152,10.2,12.7,58,0.00,CLR,SKC,0.00,WeatherDisplay:10.37,2013-03-08 21:21:00,
2013-03-08 15:26:00,53.4,38.5,30.03,SE,131,11.8,13.8,57,0.00,CLR,SKC,0.00,WeatherDisplay:10.37,2013-03-08 21:26:00,
2013-03-08 15:32:00,53.5,38.6,30.03,ESE,102,11.6,16.1,57,0.00,CLR,SKC,0.00,WeatherDisplay:10.37,2013-03-08 21:32:00,
2013-03-08 15:37:00,53.5,39.1,30.03,SSE,154,10.9,15.0,58,0.00,CLR,SKC,0.00,WeatherDisplay:10.37,2013-03-08 21:37:00,
2013-03-08 15:42:00,53.5,39.1,30.03,SE,133,11.8,16.0,58,0.00,CLR,SKC,0.00,WeatherDisplay:10.37,2013-03-08 21:42:00,
2013-03-08 15:47:00,53.5,39.1,30.03,SE,129,7.5,11.5,58,0.00,CLR,SKC,0.00,WeatherDisplay:10.37,2013-03-08 21:47:00,
2013-03-08 15:52:00,53.5,39.1,30.02,ESE,116,9.1,12.7,58,0.00,CLR,SKC,0.00,WeatherDisplay:10.37,2013-03-08 21:52:00,
2013-03-08 15:57:00,53.6,39.6,30.01,ESE,104,7.7,10.4,59,0.00,CLR,SKC,0.00,WeatherDisplay:10.37,2013-03-08 21:57:00,
2013-03-08 16:02:00,53.6,39.2,30.01,ESE,105,11.9,16.1,58,0.00,CLR,SKC,0.00,WeatherDisplay:10.37,2013-03-08 22:02:00,
2013-03-08 16:07:00,53.3,39.3,30.01,SE,134,14.6,21.9,59,0.00,CLR,SKC,0.00,WeatherDisplay:10.37,2013-03-08 22:07:00,
2013-03-08 16:12:00,53.3,39.3,30.01,SSE,150,10.6,15.0,59,0.00,CLR,SKC,0.00,WeatherDisplay:10.37,2013-03-08 22:12:00,
2013-03-08 16:17:00,53.4,39.4,30.01,SE,143,11.6,16.1,59,0.00,CLR,SKC,0.00,WeatherDisplay:10.37,2013-03-08 22:17:00,
2013-03-08 16:22:00,53.3,39.3,30.01,East,89,10.2,19.6,59,0.00,CLR,SKC,0.00,WeatherDisplay:10.37,2013-03-08 22:22:00,
2013-03-08 16:27:00,53.0,39.5,30.00,East,91,7.0,10.4,60,0.00,CLR,SKC,0.00,WeatherDisplay:10.37,2013-03-08 22:27:00,
2013-03-08 16:32:00,52.7,39.2,30.00,SE,126,10.8,13.8,60,0.00,CLR,SKC,0.00,WeatherDisplay:10.37,2013-03-08 22:32:00,
2013-03-08 16:37:00,52.4,38.9,30.00,SSE,151,9.9,12.7,60,0.00,CLR,SKC,0.00,WeatherDisplay:10.37,2013-03-08 22:37:00,
2013-03-08 16:42:00,52.2,39.1,30.00,ESE,108,8.4,11.5,61,0.00,SCT,SKC,0.00,WeatherDisplay:10.37,2013-03-08 22:42:00,
2013-03-08 16:47:00,52.0,39.0,30.00,East,100,10.7,15.0,61,0.00,SCT,SKC,0.00,WeatherDisplay:10.37,2013-03-08 22:47:00,
2013-03-08 16:52:00,51.6,39.4,30.00,ESE,109,9.7,16.1,63,0.00,SCT,SKC,0.00,WeatherDisplay:10.37,2013-03-08 22:52:00,
2013-03-08 16:57:00,51.2,39.4,30.00,ENE,70,11.7,15.0,64,0.00,SCT,SKC,0.00,WeatherDisplay:10.37,2013-03-08 22:57:00,
2013-03-08 17:02:00,51.0,39.2,30.00,East,95,10.5,16.1,64,0.00,SCT,SKC,0.00,WeatherDisplay:10.37,2013-03-08 23:02:00,
2013-03-08 17:07:00,50.8,39.1,30.00,SE,135,9.4,11.5,64,0.00,SCT,SKC,0.00,WeatherDisplay:10.37,2013-03-08 23:07:00,
2013-03-08 17:12:00,50.6,38.9,29.99,East,100,8.9,13.8,64,0.00,SCT,SKC,0.00,WeatherDisplay:10.37,2013-03-08 23:12:00,
2013-03-08 17:17:00,50.4,39.1,29.99,East,98,9.7,17.3,65,0.00,SCT,SKC,0.00,WeatherDisplay:10.37,2013-03-08 23:17:00,
2013-03-08 17:22:00,50.1,38.8,29.99,SE,125,13.4,18.4,65,0.00,SCT,SKC,0.00,WeatherDisplay:10.37,2013-03-08 23:22:00,
2013-03-08 17:27:00,49.4,38.1,29.99,ESE,113,9.2,12.7,65,0.00,SCT,SKC,0.00,WeatherDisplay:10.37,2013-03-08 23:27:00,
2013-03-08 17:32:00,49.0,38.1,30.00,SE,129,9.1,11.5,66,0.00,SCT,SKC,0.00,WeatherDisplay:10.37,2013-03-08 23:32:00,
2013-03-08 17:37:00,48.7,37.8,30.00,ESE,108,7.8,16.1,66,0.00,SCT,SKC,0.00,WeatherDisplay:10.37,2013-03-08 23:37:00,
2013-03-08 17:42:00,48.5,37.7,30.00,ESE,110,10.4,16.0,66,0.00,CLR,SKC,0.00,WeatherDisplay:10.37,2013-03-08 23:42:00,
2013-03-08 17:47:00,48.2,37.4,29.99,East,84,10.1,12.7,66,0.00,CLR,SKC,0.00,WeatherDisplay:10.37,2013-03-08 23:47:00,
2013-03-08 17:52:00,48.0,37.6,29.99,SE,135,14.5,19.6,67,0.00,CLR,SKC,0.00,WeatherDisplay:10.37,2013-03-08 23:52:00,
2013-03-08 17:57:00,47.8,37.4,29.99,SSE,157,10.5,16.1,67,0.00,CLR,SKC,0.00,WeatherDisplay:10.37,2013-03-08 23:57:00,
2013-03-08 18:02:00,47.6,37.2,29.99,SE,135,13.0,17.3,67,0.00,BKN,SKC,0.00,WeatherDisplay:10.37,2013-03-09 00:02:00,
2013-03-08 18:07:00,47.4,37.0,29.98,ESE,117,12.5,17.3,67,0.00,BKN,SKC,0.00,WeatherDisplay:10.37,2013-03-09 00:07:00,
2013-03-08 18:12:00,47.2,36.8,29.99,ESE,110,11.0,16.1,67,0.00,BKN,SKC,0.00,WeatherDisplay:10.37,2013-03-09 00:12:00,
2013-03-08 18:17:00,47.1,37.1,29.99,SE,124,10.5,16.1,68,0.00,BKN,SKC,0.00,WeatherDisplay:10.37,2013-03-09 00:17:00,
2013-03-08 18:22:00,47.0,37.0,29.99,SE,140,10.9,18.0,68,0.00,OVC,SKC,0.00,WeatherDisplay:10.37,2013-03-09 00:22:00,
2013-03-08 18:27:00,46.8,36.8,30.00,SE,135,11.8,23.0,68,0.00,OVC,SKC,0.00,WeatherDisplay:10.37,2013-03-09 00:27:00,
2013-03-08 18:32:00,46.7,36.7,29.99,SE,124,11.4,18.4,68,0.00,OVC,SKC,0.00,WeatherDisplay:10.37,2013-03-09 00:32:00,
2013-03-08 18:37:00,46.5,36.9,30.00,SSE,148,13.5,16.1,69,0.00,OVC,SKC,0.00,WeatherDisplay:10.37,2013-03-09 00:37:00,
2013-03-08 18:42:00,46.4,36.8,30.00,SE,129,9.3,12.7,69,0.00,OVC,SKC,0.00,WeatherDisplay:10.37,2013-03-09 00:42:00,
2013-03-08 18:47:00,46.2,36.6,30.00,East,100,13.4,19.0,69,0.00,OVC,SKC,0.00,WeatherDisplay:10.37,2013-03-09 00:47:00,
2013-03-08 18:52:00,45.9,36.3,30.00,ESE,113,8.8,11.5,69,0.00,OVC,SKC,0.00,WeatherDisplay:10.37,2013-03-09 00:52:00,
2013-03-08 18:57:00,45.7,36.1,29.99,ESE,117,14.0,17.3,69,0.00,OVC,SKC,0.00,WeatherDisplay:10.37,2013-03-09 00:57:00,
2013-03-08 19:02:00,45.5,35.9,29.99,ESE,107,10.8,17.0,69,0.00,OVC,SKC,0.00,WeatherDisplay:10.37,2013-03-09 01:02:00,
2013-03-08 19:07:00,45.4,36.2,29.99,SE,141,11.0,18.4,70,0.00,OVC,SKC,0.00,WeatherDisplay:10.37,2013-03-09 01:07:00,
2013-03-08 19:12:00,45.3,36.1,29.99,South,169,13.1,15.0,70,0.00,OVC,SKC,0.00,WeatherDisplay:10.37,2013-03-09 01:12:00,
2013-03-08 19:17:00,45.2,36.0,29.99,SE,132,13.0,18.4,70,0.00,OVC,SKC,0.00,WeatherDisplay:10.37,2013-03-09 01:17:00,
2013-03-08 19:22:00,45.1,35.9,29.99,ESE,120,10.7,16.1,70,0.00,OVC,SKC,0.00,WeatherDisplay:10.37,2013-03-09 01:22:00,
2013-03-08 19:27:00,45.1,35.9,29.99,ESE,115,10.2,15.0,70,0.00,OVC,SKC,0.00,WeatherDisplay:10.37,2013-03-09 01:27:00,
2013-03-08 19:32:00,44.9,35.7,29.99,ESE,118,14.4,20.7,70,0.00,OVC,SKC,0.00,WeatherDisplay:10.37,2013-03-09 01:32:00,
2013-03-08 19:37:00,44.8,35.6,29.99,SE,127,14.9,18.4,70,0.00,OVC,SKC,0.00,WeatherDisplay:10.37,2013-03-09 01:37:00,
2013-03-08 19:42:00,44.7,35.9,29.99,ESE,102,10.9,16.0,71,0.00,OVC,SKC,0.00,WeatherDisplay:10.37,2013-03-09 01:42:00,
2013-03-08 19:47:00,44.6,35.8,29.99,SE,142,10.7,17.0,71,0.00,OVC,SKC,0.00,WeatherDisplay:10.37,2013-03-09 01:47:00,
2013-03-08 19:52:00,44.7,35.9,29.99,SSE,155,10.7,17.3,71,0.00,OVC,SKC,0.00,WeatherDisplay:10.37,2013-03-09 01:52:00,
2013-03-08 19:57:00,44.5,35.7,29.99,SSE,148,16.3,21.0,71,0.00,OVC,SKC,0.00,WeatherDisplay:10.37,2013-03-09 01:57:00,
2013-03-08 20:02:00,44.5,35.3,29.99,South,170,13.6,19.6,70,0.00,-DZ,SKC,0.00,WeatherDisplay:10.37,2013-03-09 02:02:00,
2013-03-08 20:07:00,44.4,35.2,29.99,SE,143,9.6,13.0,70,0.00,-DZ,SKC,0.00,WeatherDisplay:10.37,2013-03-09 02:07:00,
2013-03-08 20:12:00,44.3,35.1,30.00,SSE,150,12.0,23.0,70,0.00,-DZ,SKC,0.00,WeatherDisplay:10.37,2013-03-09 02:12:00,
2013-03-08 20:18:00,44.1,35.3,29.99,SE,143,12.4,21.9,71,0.00,-DZ,SKC,0.00,WeatherDisplay:10.37,2013-03-09 02:18:00,
2013-03-08 20:23:00,44.1,35.3,30.00,East,97,8.8,19.6,71,0.00,-DZ,SKC,0.00,WeatherDisplay:10.37,2013-03-09 02:23:00,
2013-03-08 20:28:00,44.1,35.3,30.00,SE,135,12.7,13.8,71,0.00,-DZ,SKC,0.00,WeatherDisplay:10.37,2013-03-09 02:28:00,
2013-03-08 20:33:00,44.2,35.4,29.99,SE,124,11.9,16.1,71,0.00,-DZ,SKC,0.00,WeatherDisplay:10.37,2013-03-09 02:33:00,
2013-03-08 20:38:00,44.3,35.5,29.99,ESE,115,8.2,12.0,71,0.00,-DZ,SKC,0.00,WeatherDisplay:10.37,2013-03-09 02:38:00,
2013-03-08 20:43:00,44.5,35.3,30.00,SE,124,10.0,12.7,70,0.00,-DZ,SKC,0.00,WeatherDisplay:10.37,2013-03-09 02:43:00,
2013-03-08 20:48:00,44.6,35.4,29.99,SE,131,12.8,19.6,70,0.00,-DZ,SKC,0.00,WeatherDisplay:10.37,2013-03-09 02:48:00,
2013-03-08 20:53:00,44.6,35.4,29.99,ESE,122,12.0,15.0,70,0.00,-DZ,SKC,0.00,WeatherDisplay:10.37,2013-03-09 02:53:00,
2013-03-08 20:58:00,44.5,35.3,29.99,SE,146,8.8,11.5,70,0.00,-DZ,SKC,0.00,WeatherDisplay:10.37,2013-03-09 02:58:00,
2013-03-08 21:03:00,44.5,35.3,29.99,SSE,166,10.0,19.6,70,0.00,OVC,SKC,0.00,WeatherDisplay:10.37,2013-03-09 03:03:00,
2013-03-08 21:08:00,44.2,35.7,29.99,ESE,105,12.0,17.3,72,0.00,OVC,SKC,0.00,WeatherDisplay:10.37,2013-03-09 03:08:00,
2013-03-08 21:13:00,43.9,36.1,29.99,SE,135,7.9,13.8,74,0.00,OVC,SKC,0.00,WeatherDisplay:10.37,2013-03-09 03:13:00,
2013-03-08 21:18:00,43.6,36.2,29.99,SE,139,10.7,15.0,75,0.00,OVC,SKC,0.00,WeatherDisplay:10.37,2013-03-09 03:18:00,
2013-03-08 21:23:00,43.4,36.3,29.99,SE,135,10.5,12.7,76,0.00,OVC,SKC,0.00,WeatherDisplay:10.37,2013-03-09 03:23:00,
2013-03-08 21:28:00,43.1,36.7,30.00,ESE,108,9.7,12.7,78,0.01,RA,SKC,0.01,WeatherDisplay:10.37,2013-03-09 03:28:00,
2013-03-08 21:33:00,42.7,37.0,29.99,SE,124,9.9,13.8,80,0.01,RA,SKC,0.01,WeatherDisplay:10.37,2013-03-09 03:33:00,
2013-03-08 21:38:00,42.4,37.3,29.99,SE,131,10.2,13.8,82,0.02,RA,SKC,0.02,WeatherDisplay:10.37,2013-03-09 03:38:00,
2013-03-08 21:43:00,42.3,37.2,29.99,East,101,7.8,11.5,82,0.02,-RA,SKC,0.02,WeatherDisplay:10.37,2013-03-09 03:43:00,
2013-03-08 21:48:00,42.2,37.4,29.99,ESE,117,7.5,11.5,83,0.02,-RA,SKC,0.02,WeatherDisplay:10.37,2013-03-09 03:48:00,
2013-03-08 21:53:00,42.3,37.8,29.99,SE,136,9.5,14.0,84,0.03,-RA,SKC,0.03,WeatherDisplay:10.37,2013-03-09 03:53:00,
2013-03-08 21:58:00,42.2,37.7,29.98,SE,134,10.1,16.1,84,0.04,-RA,SKC,0.04,WeatherDisplay:10.37,2013-03-09 03:58:00,
2013-03-08 22:03:00,42.0,37.8,29.98,SSE,151,9.7,15.0,85,0.05,RA,SKC,0.05,WeatherDisplay:10.37,2013-03-09 04:03:00,
2013-03-08 22:08:00,41.8,37.9,29.97,ESE,108,9.3,16.1,86,0.06,RA,SKC,0.06,WeatherDisplay:10.37,2013-03-09 04:08:00,
2013-03-08 22:13:00,41.7,38.1,29.97,ESE,114,10.5,13.8,87,0.07,RA,SKC,0.07,WeatherDisplay:10.37,2013-03-09 04:13:00,
2013-03-08 22:18:00,41.8,38.2,29.97,ESE,121,7.0,13.0,87,0.07,RA,SKC,0.07,WeatherDisplay:10.37,2013-03-09 04:18:00,
2013-03-08 22:23:00,41.9,38.3,29.97,SSE,159,10.5,12.7,87,0.07,OVC,SKC,0.07,WeatherDisplay:10.37,2013-03-09 04:23:00,
2013-03-08 22:28:00,42.1,38.5,29.96,SSE,164,9.0,15.0,87,0.06,OVC,SKC,0.07,WeatherDisplay:10.37,2013-03-09 04:28:00,
2013-03-08 22:33:00,42.3,38.4,29.96,SSE,150,8.6,12.7,86,0.06,OVC,SKC,0.07,WeatherDisplay:10.37,2013-03-09 04:33:00,
2013-03-08 22:38:00,42.4,38.5,29.96,SE,143,9.8,15.0,86,0.05,OVC,SKC,0.07,WeatherDisplay:10.37,2013-03-09 04:38:00,
2013-03-08 22:43:00,42.4,38.5,29.96,SE,137,7.7,13.0,86,0.05,-RA,SKC,0.07,WeatherDisplay:10.37,2013-03-09 04:43:00,
2013-03-08 22:48:00,42.4,38.5,29.95,SE,136,9.6,13.8,86,0.07,-RA,SKC,0.09,WeatherDisplay:10.37,2013-03-09 04:48:00,
2013-03-08 22:53:00,42.3,38.7,29.95,SSW,195,8.7,11.5,87,0.06,-RA,SKC,0.09,WeatherDisplay:10.37,2013-03-09 04:53:00,
2013-03-08 22:58:00,42.2,38.6,29.95,SE,129,10.4,21.9,87,0.06,-RA,SKC,0.10,WeatherDisplay:10.37,2013-03-09 04:58:00,
2013-03-08 23:00:00,42.1,38.8,29.95,SE,134,9.5,15.0,88,0.06,-RA,SKC,0.10,WeatherDisplay:10.37,2013-03-09 05:00:00,
2013-03-08 23:05:00,42.0,38.7,29.94,SE,146,10.5,16.1,88,0.04,RA,SKC,0.11,WeatherDisplay:10.37,2013-03-09 05:05:00,
2013-03-08 23:10:00,41.9,38.9,29.94,SE,129,10.0,16.1,89,0.05,RA,SKC,0.12,WeatherDisplay:10.37,2013-03-09 05:10:00,
2013-03-08 23:15:00,41.9,38.9,29.94,SE,132,9.7,17.3,89,0.05,RA,SKC,0.12,WeatherDisplay:10.37,2013-03-09 05:15:00,
2013-03-08 23:20:00,41.7,39.0,29.93,ESE,121,9.8,11.5,90,0.05,RA,SKC,0.12,WeatherDisplay:10.37,2013-03-09 05:20:00,
2013-03-08 23:25:00,41.7,39.0,29.93,SE,127,6.9,11.5,90,0.05,OVC,SKC,0.12,WeatherDisplay:10.37,2013-03-09 05:25:00,
2013-03-08 23:30:00,41.6,38.9,29.93,SE,139,6.5,11.5,90,0.05,OVC,SKC,0.12,WeatherDisplay:10.37,2013-03-09 05:30:00,
2013-03-08 23:35:00,41.6,38.9,29.92,SE,137,10.6,13.8,90,0.06,RA,SKC,0.13,WeatherDisplay:10.37,2013-03-09 05:35:00,
2013-03-08 23:40:00,41.6,38.9,29.92,SE,128,9.4,17.3,90,0.06,RA,SKC,0.13,WeatherDisplay:10.37,2013-03-09 05:40:00,
2013-03-08 23:45:00,41.6,38.9,29.93,SE,132,7.1,11.5,90,0.05,OVC,SKC,0.13,WeatherDisplay:10.37,2013-03-09 05:45:00,
2013-03-08 23:50:00,41.6,38.9,29.93,SSE,155,6.5,11.5,90,0.04,OVC,SKC,0.13,WeatherDisplay:10.37,2013-03-09 05:50:00,
2013-03-08 23:55:00,41.6,38.9,29.93,SE,136,4.3,6.9,90,0.05,RA,SKC,0.14,WeatherDisplay:10.37,2013-03-09 05:55:00,